Regional Weather Roundup
Issued by NWS

Home | Current Version | Previous Version | Text Only | Print | Product List | Glossary Off
Versions: 1 2 3 4 5 6 7 8 9 10 11 12 13 14 15 16 17 18 19 20 21 22 23 24 25 26 27 28 29 30 31 32 33 34 35 36 37 38 39 40 41 42 43 44 45 46 47 48 49 50

000
ASUS45 KCYS 011510
RWRWY

WYOMING REGIONAL WEATHER ROUNDUP
NATIONAL WEATHER SERVICE CHEYENNE WY
900 AM MDT WED JUL 01 2015

NOTE:  "FAIR" INDICATES FEW OR NO CLOUDS BELOW 12,000 FEET
WITH NO SIGNIFICANT WEATHER AND/OR OBSTRUCTIONS TO VISIBILITY.

WYZ001-011600-
YELLOWSTONE NATIONAL PARK

CITY           SKY/WX    TMP DP  RH WIND       PRES   REMARKS
LK YELLOWSTONE   N/A     59  51  75 VRB3      30.36S
W YELLOWSTONE  NOT AVBL

$$
WYZ002>013-054>058-071-098>099-011600-
NORTHERN WYOMING

CITY           SKY/WX    TMP DP  RH WIND       PRES   REMARKS
JACKSON        MOSUNNY   61  48  63 CALM      30.26F
CODY           FAIR      72  48  43 E3        30.14S
GREYBULL       FAIR      77  49  37 SE3       30.06S
WORLAND        FAIR      74  51  44 NW3       30.07F
SHERIDAN       FAIR      75  55  49 CALM      30.08S
BUFFALO        FAIR      76  50  40 NW3       30.15S
GILLETTE       FAIR      76  54  46 N6        30.09S
HULETT         FAIR      73  55  53 N7        30.09R
NEWCASTLE      FAIR      77  52  41 N12       30.07S

$$
WYZ014>020-022>026-101>103-011600-
CENTRAL WYOMING

CITY           SKY/WX    TMP DP  RH WIND       PRES   REMARKS
BIG PINEY      FAIR      70  48  45 E6        30.30F
PINEDALE       FAIR      64  46  52 NW6       30.32S
DUBOIS         FAIR      66  45  45 CALM      30.28F
LANDER         FAIR      73  57  57 CALM      30.16S
RIVERTON       FAIR      71  51  49 CALM      30.18R
CASPER         FAIR      72  53  51 SW6       30.17S
DOUGLAS        FAIR      75  56  51 W9        30.15S

$$
WYZ021-027>030-104>119-011600-
SOUTHERN WYOMING

CITY           SKY/WX    TMP DP  RH WIND       PRES   REMARKS
EVANSTON       FAIR      72  50  45 S8        30.31R
KEMMERER       FAIR      70  50  49 N3        30.31F
FORT BRIDGER   SUNNY     75  46  35 W7        30.33S
ROCK SPRINGS   FAIR      67  58  72 NE5       30.27S
DIXON          FAIR      68  51  55 CALM      30.29F
RAWLINS        FAIR      65  56  72 CALM      30.28S
SARATOGA       FAIR      70  50  49 S5        30.31S
LARAMIE        FAIR      66  53  63 VRB3      30.31S
CHEYENNE       FAIR      75  53  46 N12       30.21R
TORRINGTON     FAIR      79  55  43 NW14      30.06R
PINE BLUFFS    FAIR      75  57  53 N9        30.15R

$$


USA.gov is the U.S. government's official web portal to all federal, state and local government web resources and services.